Location: Franzen
(48.6167°N, 15.3833°E)
Time: 07:47:31
(UTC+00:00)

Transit 2A - Pass Details

Date: 04 August 2021
Orbit: 594 x 964 km, 66.7° (Epoch: 24 September)

Event Time Altitude Azimuth Distance (km) Brightness Sun altitude
Rises 12:12:27 0° 326° (NW) 3,198 9.1 55.6°
Reaches altitude 10° 12:14:47 10° 331° (NNW) 2,327 8.4 55.4°
Maximum altitude 12:20:03 53° 49° (NE) 1,015 7.0 54.9°
Drops below altitude 10° 12:25:51 10° 126° (SE) 2,555 8.8 54.4°
Sets 12:28:31 0° 131° (SE) 3,538 9.5 54.1°
